Regional Weather Roundup
Issued by NWS

Home | Current Version | Previous Version | Text Only | Print | Product List | Glossary Off
Versions: 1 2 3 4 5 6 7 8 9 10 11 12 13 14 15 16 17 18 19 20 21 22 23 24 25 26 27 28 29 30 31 32 33 34 35 36 37 38 39 40 41 42 43 44 45 46 47 48 49 50

000
ASUS45 KABQ 301010
RWRNM
NEW MEXICO REGIONAL WEATHER ROUNDUP
NATIONAL WEATHER SERVICE ALBUQUERQUE NM
400 AM MDT SUN APR 30 2017

NOTE: "FAIR" MEANS FEW OR NO CLOUDS BELOW 12,000 FEET AGL WITH NO
       SIGNIFICANT WEATHER OR OBSTRUCTIONS TO VISION.

      THIS PRODUCT IS RELEASED AS TWO VERSIONS.  ONE VERSION NEAR
      THE TOP OF THE HOUR CONTAINING PRELIMINARY DATA FROM ALBUQUERQUE
      AND OTHER STATIONS.  A FINAL VERSION WITH ADDITIONAL DATA IS
      ISSUED ABOUT 10 MINUTES AFTER THE HOUR.

NMZ501-503-504-510>518-301100-
NORTHWEST PLATEAU/NORTHCENTRAL MOUNTAINS

CITY           SKY/WX    TMP DP  RH WIND       PRES   REMARKS
FARMINGTON     FAIR      36  21  54 W15       30.04S WCI  27
LOS ALAMOS     CLOUDY    30  30 100 CALM      30.01F
SANTA FE       CLOUDY    31  31 100 NE3       30.00F
TAOS             N/A     28  18  64 CALM      30.02S
ANGEL FIRE     LGT SNOW  24  19  83 CALM      29.96F

$$
NMZ402-403-502-505>509-301100-
WESTCENTRAL MOUNTAINS/SOUTHWEST MOUNTAINS

CITY           SKY/WX    TMP DP  RH WIND       PRES   REMARKS
GALLUP         FAIR      21  18  88 CALM      30.11S
GRANTS         FAIR      30  23  74 NW15      30.08F WCI  19
SILVER CITY    FAIR      34  24  67 N10       30.10S WCI  26

$$
NMZ407-409-411-412-301100-
SOUTHERN DESERTS

CITY           SKY/WX    TMP DP  RH WIND       PRES   REMARKS
DEMING         FAIR      39  25  57 W5        30.09S
LAS CRUCES     FAIR      35  31  83 N5        30.09S WCI  31
HOLLOMAN AFB   FAIR      35  33  90 CALM      30.11R
ALAMOGORDO     FAIR      32  32 100 SE3       30.08S
T OR C         FAIR      35  31  85 SW6       30.07S WCI  30

$$
NMZ519>523-301100-
CENTRAL VALLEYS/CENTRAL HIGHLANDS

CITY           SKY/WX    TMP DP  RH WIND       PRES   REMARKS
ALBUQUERQUE    CLOUDY    36  35  96 SE5       30.05F WCI  32
MORIARTY ARPT  MOCLDY    34  31  90 N6        30.02F WCI  29
CLINES CORNERS CLOUDY    29  26  89 NW20      29.99F WCI  16
BELEN          FAIR      36  36 100 CALM      30.06F
SOCORRO        FAIR      33  32  96 SW5       30.05F WCI  29

$$
NMZ524>526-539-540-301100-
SOUTHCENTRAL MOUNTAINS

CITY           SKY/WX    TMP DP  RH WIND       PRES   REMARKS
RUIDOSO        CLOUDY    28  25  86 NW14      30.03F WCI  17

$$
NMZ527>531-301100-
NORTHEAST HIGHLANDS/NORTHEAST PLAINS

CITY           SKY/WX    TMP DP  RH WIND       PRES   REMARKS
LAS VEGAS      CLOUDY    23  22  96 SW9       29.96F WCI  13
RATON          CLOUDY    28  20  71 N5        29.92F WCI  23
CLAYTON        MIX PCPN  29  27  92 NW29G37   29.84F FOG     WCI  14

$$
NMZ532>537-301100-
EASTCENTRAL PLAINS

CITY           SKY/WX    TMP DP  RH WIND       PRES   REMARKS
SANTA ROSA     CLOUDY    32  32  99 CALM      30.00S
TUCUMCARI      CLOUDY    36  29  75 NW17      29.95F WCI  26
CANNON AFB     CLOUDY    34  34  99 NW22G31   29.95R WCI  22
CLOVIS AIRPORT FAIR      34  27  75 NW26G35   29.93S WCI  21

$$
NMZ028-029-538-301100-
SOUTHEAST PLAINS

CITY           SKY/WX    TMP DP  RH WIND       PRES   REMARKS
ROSWELL        MOCLDY    36  31  82 W6          N/A  WCI  31
ARTESIA        FAIR      34  34 100 W9        30.05F WCI  26
CARLSBAD       FAIR      36  31  82 W8        30.06F WCI  30
HOBBS          FAIR      34  32  93 NW13      30.02S WCI  25


$$




USA.gov is the U.S. government's official web portal to all federal, state and local government web resources and services.